GFSGL_sfc_dewp_132.txt.gz
Dewpoint
52 53 52 54 54 55 55 55 55 57 57 56 57 58 59 60 60 61 61 61 60 59 58 58 58 57 57 57 56 55 53 52 51 51 48 49 51 52 52 52 53 53 51
50 50 50 50 50 50 51 51 53 52 54 55 55 55 55 55 56 57 57 56 58 59 59 59 59 60 57 57 57 56 54 53 52 52 51 50 50 51 51 51 53 51 49
46 46 47 47 48 48 49 50 50 51 51 51 51 51 52 52 50 50 51 52 52 53 54 55 56 56 56 57 57 57 57 55 54 54 53 52 52 52 52 52 51 50 52
44 44 45 45 45 45 46 47 48 50 49 48 48 49 50 50 50 50 49 48 47 47 49 50 50 49 50 51 52 54 55 55 55 55 54 54 53 53 52 51 51 51 51
44 43 43 43 43 43 43 45 46 47 48 49 48 48 48 48 46 46 46 45 45 46 47 48 48 50 53 52 50 49 49 50 51 52 53 52 52 51 50 51 50 51 50
43 42 43 42 41 41 42 43 44 45 46 46 46 46 46 47 44 45 45 43 43 43 44 46 46 48 49 50 50 51 50 48 47 48 48 48 49 50 51 51 50 48 46
42 42 42 41 41 43 43 43 43 42 42 42 43 43 43 43 44 42 43 41 41 42 43 43 43 42 45 45 46 47 48 48 48 44 43 44 46 48 51 51 48 47 46
40 41 41 41 41 40 40 40 40 39 39 38 38 39 38 38 42 41 42 38 38 39 40 40 41 40 41 42 43 43 44 44 45 46 46 47 49 51 52 51 51 50 49
39 39 39 39 38 38 36 35 36 35 35 35 35 36 35 35 38 39 39 39 39 39 39 40 40 40 41 41 41 41 41 42 43 44 44 44 43 43 46 48 49 50 50
37 37 37 36 34 34 34 33 33 34 34 35 35 36 37 37 38 40 41 41 40 39 39 39 41 41 40 40 40 41 42 41 42 43 44 46 45 45 44 46 47 47 50
35 34 34 33 33 33 33 34 34 35 35 36 36 36 37 38 39 40 40 41 40 39 39 39 40 40 39 39 39 40 40 41 42 43 44 45 48 50 49 50 50 52 50
32 32 32 33 33 33 34 34 35 35 35 35 35 37 38 39 40 40 40 40 40 39 39 40 40 40 39 39 40 40 39 41 41 41 41 42 43 45 45 49 50 51 52
32 32 32 33 33 34 34 33 34 35 35 35 35 36 37 38 38 39 39 39 40 40 41 41 40 39 39 39 39 39 39 39 39 40 41 42 41 43 44 47 50 52 52
32 33 33 33 34 33 34 35 35 35 35 35 35 36 37 37 38 39 40 41 40 40 39 38 38 38 38 39 39 39 39 40 40 40 41 42 42 42 43 45 46 51 52
33 32 32 32 34 34 35 36 36 37 37 36 36 37 37 37 39 39 39 39 39 38 39 38 36 36 37 38 38 40 42 43 44 44 44 43 43 42 43 45 46 46 48
32 32 33 34 35 35 35 36 37 38 38 38 37 37 39 39 38 38 38 37 37 37 37 37 37 37 38 39 40 42 44 45 47 47 47 46 44 44 43 46 47 46 46
33 34 34 35 35 35 36 36 36 39 39 39 38 38 38 39 38 38 38 37 36 36 37 37 37 38 39 41 43 44 44 47 49 50 50 48 47 46 45 46 48 49 48
33 34 34 35 35 36 37 38 39 40 40 41 41 40 39 39 39 39 37 37 39 39 38 39 40 42 43 45 47 49 50 52 52 52 52 50 48 47 47 46 44 46 50
33 34 35 35 35 37 39 40 40 40 39 40 42 40 39 38 40 41 37 39 40 40 42 43 45 46 48 50 52 52 52 52 52 51 51 51 49 48 48 47 46 41 46
34 34 34 34 35 35 36 36 38 36 37 39 39 40 37 38 41 42 43 44 45 45 46 47 48 50 51 52 53 53 53 52 53 50 50 50 50 50 49 47 47 48 50
34 34 33 33 32 32 33 35 35 35 35 36 37 38 34 36 38 39 39 41 42 43 45 48 50 51 53 53 53 53 53 52 53 53 52 51 50 49 50 51 51 51 53
33 33 32 31 31 31 32 32 32 33 34 34 35 36 34 35 36 37 38 39 41 44 47 49 51 52 51 48 48 48 48 53 53 52 53 53 52 52 53 52 53 54 53
32 31 31 30 30 30 30 31 31 31 32 32 33 34 34 34 35 36 37 38 41 47 52 50 46 45 45 45 44 43 42 44 50 55 55 54 53 53 53 54 54 53 52
32 31 31 30 30 30 30 30 30 31 31 31 32 33 33 33 34 34 35 37 39 47 46 44 43 41 41 41 40 40 40 39 46 52 53 54 54 52 55 55 54 52 49
32 32 32 31 30 29 29 29 29 30 31 31 31 32 32 33 33 34 35 35 37 40 41 41 42 39 38 37 36 36 34 34 38 38 48 50 53 53 53 53 51 48 47
32 32 31 32 31 30 30 29 29 30 30 30 30 31 32 32 32 33 34 34 35 36 37 38 38 38 36 35 34 33 33 34 35 35 47 47 46 50 52 51 49 47 45

GFSGL_sfc_dewp_138.txt.gz
Dewpoint
52 53 53 53 52 52 51 51 52 53 53 52 53 54 54 55 56 56 57 58 56 58 59 60 60 60 60 60 60 59 58 56 54 55 55 59 57 57 57 57 57 58 56
50 49 48 46 46 46 47 48 50 49 49 50 50 50 50 51 53 53 53 54 55 55 56 56 56 57 56 57 58 57 57 58 57 55 57 56 56 59 58 58 55 53 55
44 43 44 44 43 44 45 46 47 47 47 47 47 47 47 48 50 49 49 48 49 50 51 50 50 51 52 52 53 53 54 56 57 55 54 56 56 57 56 57 56 57 55
43 42 42 43 43 44 45 45 45 45 44 44 44 44 44 43 47 45 45 46 46 46 47 48 48 49 50 51 51 52 51 51 52 51 50 50 52 55 56 55 55 56 55
41 41 43 43 43 43 42 42 42 41 40 40 39 39 40 40 38 43 42 43 44 44 45 44 45 46 48 49 47 49 50 49 48 49 48 50 51 52 53 52 54 53 55
42 41 42 41 41 41 40 39 38 37 37 37 37 37 38 37 39 41 40 40 42 41 41 41 41 43 43 45 46 47 48 48 48 48 47 48 50 50 51 53 53 51 48
40 39 38 37 37 37 37 37 35 35 36 36 36 36 36 37 39 39 39 39 39 39 39 39 39 38 41 41 42 44 44 45 46 45 44 45 46 47 49 48 48 47 46
38 37 36 34 34 34 34 34 34 34 34 34 35 36 36 36 39 39 39 39 39 40 40 40 40 41 41 41 41 41 41 42 44 44 46 46 48 48 50 48 49 49 50
34 34 34 33 33 33 33 33 34 34 35 35 36 36 37 37 38 39 39 39 39 40 40 42 41 41 41 41 41 40 41 41 42 43 43 42 41 41 43 43 43 45 44
32 32 33 33 33 33 33 34 34 35 35 35 36 37 38 38 39 39 40 40 39 38 38 40 41 41 40 40 40 40 40 40 40 42 43 43 43 44 43 44 43 41 41
32 32 33 33 33 34 34 34 34 34 36 37 37 38 39 40 40 39 39 40 40 39 39 39 39 39 38 38 39 41 40 41 41 42 42 42 43 43 43 46 47 46 44
32 32 33 34 34 34 34 34 36 37 37 37 38 38 39 40 40 40 40 40 40 39 39 39 39 39 39 39 39 38 38 40 40 40 41 41 41 41 42 44 46 50 50
32 33 33 34 34 36 36 36 36 37 38 38 38 38 39 40 41 41 40 40 40 41 40 40 40 39 39 39 38 38 38 38 37 37 38 39 40 41 43 44 45 50 51
32 34 34 34 36 36 36 37 38 38 38 38 38 38 39 40 41 42 41 41 41 41 41 41 40 40 39 40 39 39 39 39 38 37 38 38 40 40 41 43 45 47 47
34 33 33 34 35 36 37 38 39 39 39 39 39 40 39 39 39 38 37 39 40 40 40 39 39 40 40 41 41 42 41 41 40 39 40 40 41 41 41 43 45 45 45
33 33 34 35 35 37 38 37 38 38 39 38 38 39 40 37 36 36 37 38 38 37 39 40 40 41 42 43 43 43 44 44 43 42 42 43 42 43 43 44 45 45 45
32 34 34 34 34 35 36 36 36 38 37 37 37 37 37 36 36 36 37 38 39 38 40 42 42 43 44 45 45 46 47 48 49 45 44 44 45 45 43 43 44 45 45
34 34 35 35 34 34 34 35 37 36 34 36 37 37 36 35 36 37 37 39 40 41 42 43 44 46 46 46 48 49 52 51 50 50 46 46 46 46 45 44 45 45 46
34 35 35 35 34 33 33 34 35 36 36 36 36 35 34 34 36 37 37 39 40 42 44 43 43 43 43 44 45 47 50 51 49 49 49 49 48 46 46 45 46 42 44
35 34 34 34 33 34 34 34 34 34 34 34 34 34 33 34 36 36 37 38 40 42 43 42 41 41 41 41 42 43 45 50 51 50 50 49 49 49 48 48 48 47 49
34 33 32 32 31 32 33 32 32 33 33 33 33 34 32 34 34 35 36 37 39 40 40 41 40 39 39 39 39 40 41 44 47 51 50 50 50 50 50 49 50 51 51
33 32 32 31 31 31 31 31 31 32 32 32 33 33 32 34 34 34 35 36 38 39 40 40 39 38 38 38 37 37 37 39 41 45 52 51 51 50 50 50 51 52 51
32 32 31 30 30 31 30 30 30 31 31 31 32 32 32 32 33 33 34 35 36 37 38 38 38 36 37 37 37 37 35 35 37 43 52 54 54 54 54 54 53 52 51
33 32 31 30 31 30 30 30 30 30 30 30 30 31 32 32 32 32 33 34 35 36 37 36 36 34 34 34 34 34 33 34 38 41 50 55 55 53 55 53 52 49 46
32 31 31 30 30 29 29 29 28 29 29 29 29 30 31 31 31 32 33 32 33 33 34 34 35 34 33 32 31 32 31 32 34 34 45 49 53 54 54 51 50 47 46
30 29 29 29 29 28 28 28 27 28 28 28 29 30 30 30 30 30 31 31 32 32 32 33 33 32 31 31 31 31 31 31 32 33 39 42 43 46 51 50 49 48 47

GFSGL_sfc_dewp_141.txt.gz
Dewpoint
55 54 54 51 51 52 51 52 52 53 52 51 51 51 51 53 55 56 56 55 55 56 58 58 59 61 60 61 62 60 59 57 54 53 54 58 60 60 60 60 60 60 57
48 49 50 49 49 50 50 50 50 49 48 47 47 47 46 47 51 50 50 51 52 52 54 55 55 57 57 59 59 59 60 60 59 58 58 59 60 61 61 61 59 57 57
45 45 47 48 48 48 48 48 47 47 46 45 45 44 44 44 45 47 46 46 48 49 51 51 52 53 53 52 53 52 53 54 56 55 56 54 55 56 57 58 59 60 58
44 45 46 47 47 46 46 46 45 44 43 43 42 41 41 41 41 42 44 43 45 45 48 49 49 49 50 51 51 52 51 49 48 47 46 45 46 51 51 51 50 51 51
43 43 44 45 44 43 43 42 42 41 41 41 41 41 41 41 38 40 41 42 43 44 45 44 45 45 46 48 46 48 50 48 45 43 42 42 42 43 46 45 46 47 50
42 41 41 41 40 40 41 40 41 41 40 40 40 40 41 39 39 39 41 41 43 43 43 43 44 44 44 45 45 46 46 45 45 42 41 41 46 45 45 45 45 44 43
39 38 37 37 37 38 39 39 39 40 41 41 41 41 41 41 40 40 40 41 42 42 42 42 42 41 43 43 44 44 44 45 46 45 44 45 46 46 48 48 49 47 46
36 35 35 36 37 37 38 39 40 39 40 39 40 41 41 41 40 39 40 41 41 41 41 41 41 42 42 42 42 42 42 43 44 43 45 45 47 48 49 49 49 50 48
34 35 36 36 36 37 38 39 39 39 40 40 40 42 42 43 41 40 40 42 42 42 41 41 40 39 39 41 40 40 41 41 42 44 43 42 41 41 42 43 42 44 43
34 35 36 36 37 38 39 39 39 40 39 39 40 41 42 43 41 40 40 41 41 41 42 42 41 41 39 39 39 38 38 38 41 41 42 42 43 44 44 45 43 43 42
34 35 36 37 38 39 39 39 39 40 40 40 41 42 42 42 43 40 40 41 41 41 41 40 40 40 39 39 39 39 39 41 41 41 40 41 42 43 43 45 46 45 43
35 36 38 38 37 37 39 40 41 40 40 41 41 41 41 43 42 41 40 40 41 41 42 42 43 40 39 39 39 39 39 39 39 38 37 38 40 41 42 43 46 47 49
36 37 37 38 38 38 40 39 38 41 41 41 40 40 41 40 41 41 40 39 40 41 42 43 41 40 40 40 40 40 40 40 39 39 38 39 39 41 43 44 45 46 48
37 38 38 37 37 38 38 39 40 41 41 39 39 40 40 40 40 39 39 41 41 43 43 44 43 41 41 41 41 42 41 41 40 39 39 40 41 40 41 41 42 44 46
37 37 36 36 37 38 39 41 41 41 40 39 39 39 39 38 37 37 37 38 39 40 40 42 43 44 44 45 45 46 46 44 41 41 40 41 42 43 41 43 44 44 45
36 35 36 36 36 38 38 38 38 38 38 37 36 38 37 36 36 36 37 37 37 38 41 43 43 44 45 46 46 47 49 49 46 43 41 41 41 43 44 45 45 45 45
36 36 36 35 37 37 36 36 37 38 38 37 36 36 36 35 36 36 37 37 39 41 43 43 42 42 42 44 45 46 47 51 50 47 43 43 43 44 43 44 44 45 45
36 35 38 36 37 35 35 36 36 37 37 36 36 36 35 35 36 36 36 39 43 41 42 41 40 41 40 41 42 43 46 50 50 47 46 45 45 45 45 44 45 45 46
36 37 38 36 35 36 36 36 36 37 36 35 36 35 34 35 36 36 37 40 40 40 40 40 41 40 40 40 41 41 43 45 50 50 49 48 48 47 46 46 47 41 42
37 34 34 34 34 35 35 34 34 35 35 34 34 34 33 34 36 36 37 38 39 39 39 40 40 40 40 39 39 39 40 41 45 50 50 50 50 49 50 48 49 49 49
36 35 32 34 33 33 33 33 33 34 33 33 34 34 32 34 34 34 36 36 38 38 38 38 38 38 38 38 38 38 38 39 41 44 50 51 51 50 50 51 51 51 51
35 34 33 32 32 32 32 32 32 32 32 32 33 33 32 34 34 34 35 35 37 38 38 38 38 36 36 36 36 36 36 36 38 41 45 54 53 53 52 51 52 52 51
34 34 32 31 31 31 31 31 30 30 30 31 32 33 32 33 33 33 33 34 35 37 37 36 36 35 35 35 36 36 34 34 37 42 46 54 55 55 55 54 53 51 50
33 32 31 30 30 30 29 29 29 29 29 29 30 32 32 32 32 32 33 34 34 35 35 35 36 34 34 33 33 32 32 33 37 39 47 51 54 53 54 52 50 48 48
32 31 31 30 29 29 29 28 28 30 29 28 29 29 30 30 31 32 32 31 31 32 33 33 33 33 34 33 31 32 31 31 34 33 43 46 49 50 51 50 50 49 49
31 31 30 29 28 28 28 28 27 28 27 27 28 30 29 30 30 31 31 30 30 31 30 30 31 32 31 30 30 30 30 31 32 32 39 42 42 43 44 48 50 49 49

GFSGL_sfc_dewp_147.txt.gz
Dewpoint
56 56 55 54 54 54 54 53 54 54 52 50 49 48 48 49 51 53 54 50 50 53 55 54 55 58 52 52 54 55 61 64 60 60 63 64 63 62 61 62 62 62 60
51 52 52 52 52 53 52 52 51 51 49 47 46 45 43 43 47 47 46 45 46 48 48 49 48 46 56 55 51 56 54 56 56 56 57 57 61 62 64 65 66 62 59
49 49 51 52 51 52 51 50 48 46 45 45 45 45 46 47 48 47 46 46 48 49 49 50 50 51 53 50 52 51 49 50 52 51 52 53 54 58 60 62 60 62 62
46 48 49 49 49 48 47 47 47 47 47 47 48 47 47 47 44 43 42 44 46 46 48 49 49 48 48 48 48 49 49 48 49 49 48 49 49 54 54 53 53 56 57
44 44 45 44 44 46 46 47 48 49 48 47 46 46 47 45 38 42 43 44 46 46 46 45 45 46 46 47 44 46 46 44 44 44 43 43 44 45 48 48 48 50 53
43 40 40 41 42 44 46 48 48 47 47 46 46 45 46 41 42 42 43 45 46 45 45 44 44 44 44 45 46 46 45 44 43 43 42 43 47 47 47 47 48 47 45
39 37 38 39 42 44 46 46 47 47 48 46 46 45 45 44 42 42 43 45 47 47 48 47 45 42 45 43 44 44 44 45 46 44 44 44 44 45 46 45 45 46 47
37 38 40 42 44 45 45 46 46 46 46 45 45 45 45 44 43 42 43 46 46 47 47 48 48 48 47 44 44 43 43 44 45 43 45 45 47 48 48 45 45 45 46
37 40 42 43 44 44 44 45 45 44 45 44 44 45 46 46 43 42 43 44 44 45 45 47 46 47 45 43 44 43 43 44 44 45 43 42 41 41 42 41 40 41 42
39 42 43 44 44 44 44 44 44 44 44 43 44 45 45 45 43 41 42 41 43 42 44 46 45 45 41 41 43 42 41 41 44 45 46 46 44 44 43 44 41 42 43
41 41 43 44 43 44 44 44 44 44 44 45 44 45 45 45 46 41 40 41 41 41 42 44 46 43 41 41 41 43 42 44 43 43 43 44 46 46 46 45 45 45 43
42 43 43 44 41 41 44 43 44 45 43 44 44 43 43 46 43 41 39 39 40 41 42 44 45 41 40 41 43 42 41 42 42 42 42 42 42 42 43 46 48 47 47
43 43 43 43 42 42 43 43 41 43 41 41 41 41 42 43 44 41 39 39 40 42 43 43 42 41 43 45 44 43 44 48 47 41 41 41 43 44 46 46 48 47 48
42 42 43 43 41 42 40 41 41 40 39 40 40 39 41 41 41 39 39 41 42 43 44 46 44 43 42 43 45 46 47 48 45 43 42 43 43 43 43 44 42 43 44
42 43 43 41 42 40 41 41 39 41 38 39 38 37 37 38 37 37 37 39 41 41 43 45 44 43 42 43 43 44 46 48 45 45 44 43 43 43 42 43 45 44 44
42 41 40 41 40 39 40 40 39 39 38 37 36 36 36 36 36 37 37 37 37 38 44 43 43 43 41 41 41 42 44 46 48 48 46 45 43 43 44 46 46 45 44
41 41 40 39 39 41 39 39 39 40 39 37 36 36 36 36 36 36 37 37 37 40 42 41 42 43 42 41 41 41 41 44 46 48 49 48 47 46 44 45 45 45 44
41 37 41 41 40 39 39 39 39 39 39 40 37 36 36 35 36 36 36 39 41 40 40 41 41 42 41 42 42 41 40 42 43 45 47 48 51 50 48 48 47 45 46
40 40 41 40 38 38 39 38 39 37 37 38 38 37 35 35 36 36 37 39 39 38 38 39 39 41 41 42 44 44 44 42 42 42 44 46 48 52 50 49 49 42 44
40 35 37 39 37 38 38 37 37 36 36 36 35 33 34 36 37 39 36 36 37 37 37 38 38 39 39 39 39 40 40 42 42 43 45 48 51 52 51 51 51 51 51
39 39 34 38 37 36 37 36 35 34 35 34 35 32 32 34 36 34 33 35 37 37 37 37 34 35 36 37 36 37 37 37 38 42 46 47 52 54 54 52 52 53 50
38 38 37 36 36 36 35 35 33 33 33 35 36 34 32 33 34 36 37 38 37 35 36 36 32 32 33 33 34 34 34 34 35 38 43 46 51 52 53 53 52 52 51
37 36 35 35 34 33 34 33 32 32 32 32 32 33 34 37 35 34 32 34 34 33 34 33 32 31 33 33 33 32 32 32 33 37 39 44 48 48 49 52 51 50 49
36 35 34 33 33 32 32 31 29 29 29 29 30 31 32 32 33 32 31 31 30 30 31 32 31 30 32 32 31 30 31 31 33 34 37 43 44 44 46 47 48 50 49
36 35 34 33 33 32 32 31 30 29 28 29 28 27 27 27 28 30 29 28 28 28 29 30 30 30 30 30 30 30 30 30 31 31 35 38 39 42 43 43 45 47 48
36 34 34 33 33 33 32 30 29 29 27 26 25 25 25 24 25 26 26 26 26 26 27 28 28 28 28 28 29 29 29 30 30 30 33 34 35 37 38 39 42 42 43